EZY42JA EGKK-EHAM

Flight info

Callsign EZY42JA
Flight time N/A
Altitude 29000
Route FRANE M604 GASBA M197 REDFA
Aircraft A320/M-SDE2E3FGHIJ1RWXYZ/LB1

Departure

Time 2026-04-14 14:52
Airport London Gatwick Airport (EGKK)

Arrival

Time N/A
Airport Amsterdam Airport Schiphol (EHAM)
Time Latitude Longitude Altitude Speed Heading
2026-04-14 14:26 51.16113 -0.18022 205 ft 0 kts 77°
2026-04-14 14:35 51.16110 -0.18045 209 ft 2 kts 84°
2026-04-14 14:36 51.16109 -0.18071 212 ft 2 kts 90°
2026-04-14 14:36 51.16109 -0.18080 209 ft 2 kts 94°
2026-04-14 14:36 51.16114 -0.18122 209 ft 2 kts 114°
2026-04-14 14:36 51.16122 -0.18146 208 ft 2 kts 126°
2026-04-14 14:37 51.16133 -0.18166 217 ft 2 kts 140°
2026-04-14 14:37 51.16146 -0.18181 209 ft 2 kts 150°
2026-04-14 14:37 51.16161 -0.18193 207 ft 2 kts 159°
2026-04-14 14:37 51.16175 -0.18200 210 ft 2 kts 165°
2026-04-14 14:38 51.16180 -0.18202 208 ft 0 kts 166°
2026-04-14 14:42 51.16164 -0.18196 207 ft 9 kts 166°
2026-04-14 14:42 51.16076 -0.18164 205 ft 15 kts 167°
2026-04-14 14:42 51.15976 -0.18130 205 ft 15 kts 168°
2026-04-14 14:42 51.15875 -0.18095 208 ft 15 kts 168°
2026-04-14 14:43 51.15772 -0.18059 208 ft 15 kts 167°
2026-04-14 14:43 51.15707 -0.18021 211 ft 9 kts 135°
2026-04-14 14:43 51.15705 -0.17926 208 ft 8 kts 77°
2026-04-14 14:43 51.15717 -0.17844 205 ft 7 kts 77°
2026-04-14 14:44 51.15726 -0.17777 207 ft 6 kts 78°
2026-04-14 14:44 51.15742 -0.17654 209 ft 14 kts 78°
2026-04-14 14:44 51.15737 -0.17517 217 ft 12 kts 140°
2026-04-14 14:44 51.15667 -0.17484 207 ft 10 kts 167°
2026-04-14 14:45 51.15601 -0.17461 207 ft 11 kts 168°
2026-04-14 14:45 51.15509 -0.17429 205 ft 14 kts 168°
2026-04-14 14:45 51.15414 -0.17396 205 ft 14 kts 167°
2026-04-14 14:45 51.15319 -0.17363 205 ft 14 kts 168°
2026-04-14 14:46 51.15243 -0.17276 212 ft 15 kts 91°
2026-04-14 14:46 51.15265 -0.17099 212 ft 17 kts 77°
2026-04-14 14:46 51.15287 -0.16944 205 ft 9 kts 77°
2026-04-14 14:46 51.15290 -0.16859 205 ft 7 kts 107°
2026-04-14 14:47 51.15282 -0.16837 208 ft 0 kts 133°
2026-04-14 14:48 51.15280 -0.16837 208 ft 0 kts 150°
2026-04-14 14:50 51.15275 -0.16834 207 ft 5 kts 153°
2026-04-14 14:50 51.15216 -0.16807 213 ft 10 kts 167°
2026-04-14 14:50 51.15151 -0.16800 206 ft 11 kts 196°
2026-04-14 14:50 51.15108 -0.16905 206 ft 11 kts 258°
2026-04-14 14:51 51.15102 -0.16951 207 ft 0 kts 257°
2026-04-14 14:51 51.15093 -0.17016 209 ft 17 kts 258°
2026-04-14 14:51 51.15010 -0.17614 215 ft 98 kts 256°
2026-04-14 14:51 51.14810 -0.19082 220 ft 168 kts 254°
2026-04-14 14:52 51.14554 -0.21003 722 ft 191 kts 258°
2026-04-14 14:52 51.14276 -0.23056 1645 ft 188 kts 258°
2026-04-14 14:52 51.13997 -0.25147 2393 ft 200 kts 258°
2026-04-14 14:52 51.13725 -0.27422 3026 ft 218 kts 266°
2026-04-14 14:53 51.14037 -0.29813 3629 ft 229 kts 298°
2026-04-14 14:53 51.15131 -0.31659 3837 ft 232 kts 332°
2026-04-14 14:53 51.16659 -0.32246 3874 ft 233 kts
2026-04-14 14:53 51.18178 -0.31436 3880 ft 234 kts 36°
2026-04-14 14:54 51.19202 -0.29439 3878 ft 235 kts 69°
2026-04-14 14:54 51.19563 -0.26899 3879 ft 236 kts 80°
2026-04-14 14:54 51.19855 -0.24328 3880 ft 236 kts 79°
2026-04-14 14:54 51.20160 -0.21757 3880 ft 236 kts 79°
2026-04-14 14:55 51.20482 -0.19142 3879 ft 254 kts 78°
2026-04-14 14:55 51.20855 -0.16272 3877 ft 267 kts 78°
2026-04-14 14:55 51.21238 -0.13373 4055 ft 266 kts 78°
2026-04-14 14:55 51.21621 -0.10504 4644 ft 270 kts 78°
2026-04-14 14:56 51.22399 -0.04624 4877 ft 271 kts 78°
2026-04-14 14:56 51.22783 -0.01684 4880 ft 271 kts 78°
2026-04-14 14:56 51.23165 0.01262 4877 ft 271 kts 78°
2026-04-14 14:57 51.23545 0.04208 4878 ft 271 kts 78°
2026-04-14 14:57 51.23923 0.07141 4879 ft 271 kts 78°
2026-04-14 14:57 51.24304 0.10090 4878 ft 271 kts 78°
2026-04-14 14:57 51.24684 0.13037 4879 ft 271 kts 78°
2026-04-14 14:58 51.25063 0.15980 4879 ft 271 kts 78°
2026-04-14 14:58 51.25417 0.18937 4880 ft 271 kts 84°
2026-04-14 14:58 51.25452 0.20935 4877 ft 271 kts 94°
2026-04-14 14:58 51.25325 0.22950 4888 ft 271 kts 96°
2026-04-14 14:59 51.25127 0.25930 4884 ft 271 kts 96°
2026-04-14 14:59 51.25066 0.26830 4879 ft 271 kts 96°
2026-04-14 14:59 51.25026 0.27427 4878 ft 271 kts 96°
2026-04-14 14:59 51.24988 0.28025 4879 ft 271 kts 96°
2026-04-14 15:00 51.24943 0.28621 4877 ft 271 kts 97°
2026-04-14 15:00 51.24768 0.31462 4871 ft 271 kts 95°
2026-04-14 15:00 51.24588 0.34459 4876 ft 271 kts 96°
2026-04-14 15:00 51.24384 0.37446 4881 ft 271 kts 96°
2026-04-14 15:01 51.24172 0.40435 4880 ft 271 kts 97°
2026-04-14 15:01 51.23957 0.43420 4881 ft 271 kts 96°
2026-04-14 15:01 51.23745 0.46417 4878 ft 271 kts 96°
2026-04-14 15:01 51.23536 0.49403 4878 ft 271 kts 96°
2026-04-14 15:02 51.23401 0.51378 4879 ft 271 kts 96°
2026-04-14 15:02 51.23439 0.54362 4878 ft 270 kts 75°
2026-04-14 15:02 51.24271 0.57014 4879 ft 270 kts 49°
2026-04-14 15:02 51.25757 0.58798 4880 ft 269 kts 22°
2026-04-14 15:03 51.27575 0.59409 4882 ft 269 kts
2026-04-14 15:03 51.29442 0.59636 4880 ft 269 kts
2026-04-14 15:03 51.31288 0.60066 4930 ft 268 kts 13°
2026-04-14 15:03 51.33110 0.60751 5495 ft 271 kts 12°
2026-04-14 15:04 51.34957 0.61438 5811 ft 273 kts 13°
2026-04-14 15:04 51.36806 0.62129 5878 ft 273 kts 13°
2026-04-14 15:04 51.38655 0.62823 5880 ft 273 kts 13°
2026-04-14 15:04 51.40496 0.63513 6232 ft 272 kts 13°
2026-04-14 15:05 51.42355 0.64214 7043 ft 276 kts 13°
2026-04-14 15:05 51.44239 0.64928 7897 ft 280 kts 13°
2026-04-14 15:05 51.46146 0.65653 8731 ft 283 kts 13°
2026-04-14 15:05 51.48077 0.66387 9550 ft 287 kts 13°
2026-04-14 15:06 51.50035 0.67132 10257 ft 295 kts 13°
2026-04-14 15:06 51.52081 0.67910 10684 ft 311 kts 13°
2026-04-14 15:06 51.53758 0.68546 11006 ft 324 kts 13°
2026-04-14 15:06 51.55883 0.69357 11577 ft 333 kts 13°
2026-04-14 15:07 51.58150 0.70223 12291 ft 337 kts 13°
2026-04-14 15:07 51.60444 0.71094 13017 ft 340 kts 13°
2026-04-14 15:07 51.62726 0.71960 13707 ft 344 kts 13°
2026-04-14 15:07 51.65083 0.72854 14390 ft 347 kts 13°
2026-04-14 15:08 51.67445 0.73753 15055 ft 351 kts 13°
2026-04-14 15:08 51.69824 0.74661 15706 ft 354 kts 13°
2026-04-14 15:08 51.72242 0.75586 16333 ft 357 kts 13°
2026-04-14 15:08 51.74673 0.76518 16943 ft 361 kts 13°
2026-04-14 15:09 51.77106 0.77580 17538 ft 364 kts 20°
2026-04-14 15:09 51.79379 0.79293 18118 ft 367 kts 31°
2026-04-14 15:09 51.81475 0.81767 18695 ft 371 kts 42°
2026-04-14 15:09 51.83223 0.84781 19246 ft 374 kts 52°
2026-04-14 15:10 51.84629 0.88338 19790 ft 378 kts 63°
2026-04-14 15:10 51.85607 0.92293 20330 ft 381 kts 73°
2026-04-14 15:10 51.86357 0.96410 20853 ft 384 kts 73°
2026-04-14 15:10 51.87114 1.00589 21369 ft 387 kts 73°
2026-04-14 15:11 51.87871 1.04785 21878 ft 390 kts 73°
2026-04-14 15:11 51.88635 1.09019 22379 ft 393 kts 73°
2026-04-14 15:11 51.89405 1.13287 22871 ft 396 kts 73°
2026-04-14 15:11 51.90181 1.17590 23350 ft 399 kts 73°
2026-04-14 15:12 51.90971 1.21977 23820 ft 402 kts 73°
2026-04-14 15:12 51.91754 1.26340 24266 ft 405 kts 73°
2026-04-14 15:12 51.92529 1.30678 24694 ft 407 kts 73°
2026-04-14 15:12 51.93318 1.35103 25109 ft 410 kts 74°
2026-04-14 15:13 51.94109 1.39557 25509 ft 413 kts 74°
2026-04-14 15:13 51.94902 1.44043 25897 ft 415 kts 74°
2026-04-14 15:13 51.95696 1.48546 26272 ft 417 kts 74°
2026-04-14 15:13 51.96496 1.53090 26638 ft 420 kts 74°
2026-04-14 15:14 51.97300 1.57650 26989 ft 422 kts 74°
2026-04-14 15:14 51.98105 1.62240 27333 ft 424 kts 74°
2026-04-14 15:14 51.98913 1.66862 27675 ft 427 kts 74°
2026-04-14 15:14 51.99711 1.71509 27998 ft 429 kts 75°
2026-04-14 15:15 52.00469 1.76197 28322 ft 431 kts 76°
2026-04-14 15:15 52.01199 1.80923 28638 ft 433 kts 76°
2026-04-14 15:15 52.01917 1.85682 28917 ft 435 kts 76°
2026-04-14 15:15 52.02632 1.90463 28998 ft 435 kts 76°
2026-04-14 15:16 52.04070 2.00005 29009 ft 435 kts 76°
2026-04-14 15:16 52.05537 2.09550 29009 ft 435 kts 76°
2026-04-14 15:17 52.06996 2.19052 28892 ft 426 kts 76°
2026-04-14 15:17 52.07703 2.23686 28498 ft 418 kts 76°
2026-04-14 15:17 52.08393 2.28236 28010 ft 411 kts 76°
2026-04-14 15:18 52.09068 2.32720 27279 ft 409 kts 76°
2026-04-14 15:18 52.09740 2.37230 26357 ft 414 kts 76°
2026-04-14 15:18 52.10423 2.41838 25243 ft 424 kts 76°
2026-04-14 15:18 52.11136 2.46544 24105 ft 433 kts 73°
2026-04-14 15:19 52.12292 2.51092 22958 ft 439 kts 60°
2026-04-14 15:19 52.13855 2.55352 22355 ft 434 kts 59°
2026-04-14 15:19 52.15377 2.59513 22014 ft 422 kts 59°
2026-04-14 15:19 52.16851 2.63575 21644 ft 412 kts 59°
2026-04-14 15:20 52.18288 2.67556 21270 ft 403 kts 59°
2026-04-14 15:20 52.19690 2.71461 20909 ft 395 kts 59°
2026-04-14 15:20 52.21062 2.75292 20562 ft 388 kts 59°
2026-04-14 15:20 52.22411 2.79051 20211 ft 380 kts 59°
2026-04-14 15:21 52.23716 2.82688 19884 ft 373 kts 59°
2026-04-14 15:21 52.25032 2.86361 19539 ft 366 kts 59°
2026-04-14 15:21 52.26302 2.89911 19212 ft 359 kts 59°
2026-04-14 15:21 52.27530 2.93353 18897 ft 352 kts 59°
2026-04-14 15:22 52.28770 2.96829 18577 ft 346 kts 59°
2026-04-14 15:22 52.29958 3.00153 18263 ft 340 kts 59°
2026-04-14 15:22 52.31155 3.03503 17961 ft 335 kts 59°
2026-04-14 15:22 52.32316 3.06762 17653 ft 329 kts 59°
2026-04-14 15:23 52.33442 3.09928 17375 ft 324 kts 59°
2026-04-14 15:23 52.34563 3.13089 17085 ft 319 kts 60°
2026-04-14 15:23 52.35665 3.16202 16802 ft 314 kts 59°
2026-04-14 15:23 52.36751 3.19268 16519 ft 309 kts 59°
2026-04-14 15:24 52.37823 3.22294 16237 ft 305 kts 59°
2026-04-14 15:24 52.38891 3.25316 15965 ft 301 kts 60°
2026-04-14 15:24 52.39918 3.28229 15700 ft 297 kts 60°
2026-04-14 15:24 52.40943 3.31139 15433 ft 293 kts 60°
2026-04-14 15:25 52.41953 3.34009 15168 ft 289 kts 60°
2026-04-14 15:25 52.42962 3.36881 14909 ft 285 kts 60°
2026-04-14 15:25 52.43945 3.39681 14654 ft 281 kts 60°
2026-04-14 15:25 52.44791 3.42541 14402 ft 277 kts 70°
2026-04-14 15:26 52.45299 3.45565 14153 ft 274 kts 77°
2026-04-14 15:26 52.45728 3.48583 13908 ft 270 kts 77°
2026-04-14 15:26 52.46156 3.51553 13669 ft 266 kts 76°
2026-04-14 15:26 52.46579 3.54480 13425 ft 262 kts 76°
2026-04-14 15:27 52.47000 3.57366 13177 ft 259 kts 76°
2026-04-14 15:27 52.47414 3.60198 12928 ft 258 kts 76°
2026-04-14 15:27 52.47832 3.63054 12684 ft 257 kts 76°
2026-04-14 15:27 52.48248 3.65900 12429 ft 256 kts 76°
2026-04-14 15:28 52.48662 3.68736 12179 ft 255 kts 76°
2026-04-14 15:28 52.49074 3.71560 11929 ft 254 kts 76°
2026-04-14 15:28 52.49489 3.74410 11673 ft 253 kts 76°
2026-04-14 15:28 52.49898 3.77215 11425 ft 252 kts 76°
2026-04-14 15:29 52.50304 3.80009 11175 ft 251 kts 76°
2026-04-14 15:29 52.50709 3.82792 10923 ft 250 kts 76°
2026-04-14 15:29 52.51107 3.85531 10671 ft 249 kts 76°
2026-04-14 15:29 52.51507 3.88288 10432 ft 248 kts 76°
2026-04-14 15:30 52.51908 3.91049 10178 ft 252 kts 76°
2026-04-14 15:30 52.52318 3.94025 10022 ft 279 kts 82°
2026-04-14 15:30 52.52380 3.97247 10012 ft 280 kts 91°
2026-04-14 15:30 52.52310 4.00446 10006 ft 280 kts 92°
2026-04-14 15:31 52.52227 4.03632 9851 ft 279 kts 92°
2026-04-14 15:31 52.52141 4.06812 9659 ft 278 kts 92°
2026-04-14 15:31 52.52055 4.09980 9458 ft 277 kts 92°
2026-04-14 15:31 52.51969 4.13142 9256 ft 277 kts 92°
2026-04-14 15:32 52.51883 4.16294 9058 ft 276 kts 92°
2026-04-14 15:32 52.51797 4.19431 8858 ft 275 kts 92°
2026-04-14 15:32 52.51710 4.22567 8657 ft 274 kts 92°
2026-04-14 15:32 52.51624 4.25685 8457 ft 273 kts 92°
2026-04-14 15:33 52.51538 4.28800 8257 ft 273 kts 92°
2026-04-14 15:33 52.51460 4.31581 8078 ft 272 kts 92°
2026-04-14 15:33 52.51375 4.34637 7880 ft 271 kts 92°
2026-04-14 15:33 52.51288 4.37727 7678 ft 270 kts 92°
2026-04-14 15:34 52.51202 4.40802 7477 ft 270 kts 92°
2026-04-14 15:34 52.51115 4.43874 7279 ft 269 kts 92°
2026-04-14 15:34 52.51028 4.46932 7079 ft 268 kts 92°
2026-04-14 15:34 52.50941 4.49983 6883 ft 267 kts 92°
2026-04-14 15:35 52.50854 4.53016 6679 ft 266 kts 92°
2026-04-14 15:35 52.50767 4.56059 6464 ft 266 kts 92°
2026-04-14 15:35 52.50680 4.59084 6278 ft 265 kts 92°
2026-04-14 15:35 52.50593 4.62098 6079 ft 264 kts 92°
2026-04-14 15:36 52.50507 4.65057 5950 ft 254 kts 92°
2026-04-14 15:36 52.50425 4.67871 5826 ft 242 kts 92°
2026-04-14 15:36 52.50345 4.70627 5246 ft 250 kts 92°
2026-04-14 15:36 52.50259 4.73563 4635 ft 251 kts 92°
2026-04-14 15:37 52.50186 4.76353 4167 ft 245 kts 89°
2026-04-14 15:37 52.50575 4.79026 3612 ft 242 kts 63°
2026-04-14 15:37 52.51246 4.81540 3093 ft 239 kts 79°
2026-04-14 15:37 52.51139 4.84145 2837 ft 227 kts 112°
2026-04-14 15:38 52.50242 4.86200 2589 ft 221 kts 137°
2026-04-14 15:38 52.48956 4.87462 2336 ft 215 kts 168°
2026-04-14 15:38 52.47490 4.87305 2082 ft 209 kts 205°
2026-04-14 15:38 52.46381 4.85912 1871 ft 202 kts 229°
2026-04-14 15:39 52.45516 4.84206 1813 ft 187 kts 234°
2026-04-14 15:39 52.44878 4.82394 1794 ft 183 kts 245°
2026-04-14 15:39 52.44376 4.80540 1792 ft 169 kts 248°
2026-04-14 15:39 52.43949 4.78886 1821 ft 146 kts 248°
2026-04-14 15:40 52.43566 4.77386 1811 ft 142 kts 248°
2026-04-14 15:40 52.43181 4.75879 1812 ft 143 kts 249°
2026-04-14 15:40 52.42537 4.74718 1828 ft 143 kts 197°
2026-04-14 15:40 52.41543 4.74674 1785 ft 144 kts 179°
2026-04-14 15:41 52.40542 4.74644 1794 ft 144 kts 183°
2026-04-14 15:41 52.39611 4.74575 1793 ft 144 kts 184°
2026-04-14 15:41 52.38608 4.74493 1689 ft 144 kts 184°
2026-04-14 15:41 52.37568 4.74420 1083 ft 162 kts 184°
2026-04-14 15:42 52.36454 4.74320 731 ft 154 kts 184°
2026-04-14 15:42 52.35398 4.74233 427 ft 145 kts 184°
2026-04-14 15:42 52.34434 4.74131 277 ft 134 kts 182°
2026-04-14 15:42 52.33827 4.74088 153 ft 128 kts 184°
2026-04-14 15:43 52.32970 4.73998 8 ft 121 kts 185°
2026-04-14 15:43 52.32236 4.73926 -2 ft 78 kts 184°